sat.trackr.live / text

‹ back to catalog

STARLINK-31022

NORAD 58633 · 2023-203R

PAYLOAD ACTIVE UNKNOWN

§ Identity

Operator
Country
US
Launch date
2023-12-23
Launch site
AFETR
Launch vehicle
Mass (kg)
RCS (m²)

Purposes: comms

External: N2YO · Heavens-Above · Gunter

§ Orbital elements

Epoch: 2026-05-24T23:31:02.221248Z

Period
94.27 min
Inclination
43.0041°
Eccentricity
0.0002103
Mean motion
15.27552044 rev/d
Perigee alt
481.7 km
Apogee alt
484.6 km
Semi-major
6,861.3 km
B*
4.9028e-4
RAAN
0.1415°
Arg perigee
297.4381°
Mean anomaly
62.6257°
Rev number
13,641

§ Raw data

STARLINK-310221 58633U 23203R   26144.97988682  .00013242  00000+0  49028-3 0  99962 58633  43.0041   0.1415 0002103 297.4381  62.6257 15.27552044136418

JSON: /api/v1/satellites/58633 · /tle

For live sub-satellite position, see the globe view (requires WebGL).

§ Visibility from observer

Set your observer location to see the next 7 days of passes ≥ 10°. The values pass through the URL so the page stays shareable.

No JS? Fill the form by hand. The geolocation button needs JavaScript.